Location: Bailleul
(50.3375°N, 2.8513°E)
Time: 05:22:09
(UTC+00:00)

NOSS 2-2 (C) - Pass Details

Date: 19 April 2021
Orbit: 458 x 1749 km, 63.3° (Epoch: 02 May)

Event Time Altitude Azimuth Distance (km) Brightness Sun altitude
Rises 23:32:12 0° 317° (NW) 2,991 7.8 -28.1°
Reaches altitude 10° 23:34:14 10° 319° (NW) 2,210 7.0 -28.1°
Maximum altitude 23:39:17 73° 44° (NE) 937 4.4 -28.1°
Enters shadow 23:40:17 60° 101° (E) 1,054 4.5 -28.1°
